When you browse on this site, cookies collect data to enhance your experience and personalize the content and advertising you see.
Visit our Privacy Policy to learn more. By continuing to use the site, you agree to this use of cookies and data.
  • Em Portugal
  • Lista de países
  • Para 7 dias
  • Temperatura da água
  • Mapa do tempo
  • Widgets de tempo
  • user-avatar
    Iniciar Sessão

    Previsão horária em Verhnyaya Ivanovka

    Hoje, 26 Agosto, Segunda-feira

    Tempo Temperatura Precipitação Vento Pressão Humidade
    00:00 +12°C° 0 mm 5 m/s 751 mmHg 87%
    01:00 +11°C° 0 mm 4 m/s 752 mmHg 89%
    02:00 +11°C° 0 mm 4 m/s 752 mmHg 91%
    03:00 +10°C° 0 mm 4 m/s 753 mmHg 94%
    04:00 +10°C° 0 mm 4 m/s 753 mmHg 93%
    05:00 +10°C° 0 mm 4 m/s 753 mmHg 92%
    06:00 +9°C° 0 mm 5 m/s 754 mmHg 91%
    07:00 +10°C° 0 mm 5 m/s 754 mmHg 85%
    08:00 +12°C° 0 mm 5 m/s 754 mmHg 80%
    09:00 +13°C° 0 mm 5 m/s 755 mmHg 74%
    10:00 +14°C° 0 mm 5 m/s 755 mmHg 68%
    11:00 +15°C° 0 mm 5 m/s 755 mmHg 62%
    12:00 +18°C° 0 mm 4 m/s 754 mmHg 55%
    13:00 +18°C° 0 mm 4 m/s 754 mmHg 56%
    14:00 +17°C° 0 mm 5 m/s 755 mmHg 57%
    15:00 +17°C° 0 mm 5 m/s 755 mmHg 58%
    16:00 +17°C° 0 mm 4 m/s 754 mmHg 63%
    17:00 +16°C° 0 mm 3 m/s 754 mmHg 68%
    18:00 +15°C° 0 mm 2 m/s 754 mmHg 73%
    19:00 +14°C° 0 mm 2 m/s 754 mmHg 76%
    20:00 +13°C° 0 mm 1 m/s 754 mmHg 79%
    21:00 +12°C° 0 mm 1 m/s 753 mmHg 82%
    22:00 +12°C° 0 mm 1 m/s 753 mmHg 82%
    23:00 +12°C° 0 mm 2 m/s 752 mmHg 82%

    Amanhã, 27 Agosto, Terça-feira

    Tempo Temperatura Precipitação Vento Pressão Humidade
    00:00 +12°C° 0 mm 2 m/s 752 mmHg 83%
    01:00 +12°C° 0 mm 2 m/s 752 mmHg 81%
    02:00 +12°C° 0 mm 2 m/s 751 mmHg 79%
    03:00 +12°C° 0 mm 2 m/s 751 mmHg 78%
    04:00 +11°C° 0 mm 3 m/s 750 mmHg 77%
    05:00 +12°C° 0 mm 4 m/s 750 mmHg 77%
    06:00 +12°C° 0 mm 4 m/s 749 mmHg 77%
    07:00 +13°C° 0.1 mm 5 m/s 748 mmHg 77%
    08:00 +14°C° 0.1 mm 5 m/s 748 mmHg 77%
    09:00 +14°C° 0.1 mm 6 m/s 747 mmHg 77%
    10:00 +14°C° 0.3 mm 6 m/s 747 mmHg 78%
    11:00 +14°C° 0.3 mm 6 m/s 746 mmHg 80%
    12:00 +14°C° 0.3 mm 6 m/s 745 mmHg 82%
    13:00 +14°C° 1 mm 6 m/s 745 mmHg 86%
    14:00 +13°C° 1 mm 6 m/s 745 mmHg 89%
    15:00 +13°C° 1 mm 6 m/s 744 mmHg 92%
    16:00 +13°C° 0.5 mm 5 m/s 744 mmHg 92%
    17:00 +13°C° 0.5 mm 4 m/s 743 mmHg 92%
    18:00 +13°C° 0.5 mm 3 m/s 743 mmHg 92%
    19:00 +13°C° 0.5 mm 3 m/s 742 mmHg 93%
    20:00 +12°C° 0.5 mm 3 m/s 742 mmHg 94%
    21:00 +11°C° 0.5 mm 3 m/s 742 mmHg 95%
    22:00 +11°C° 0.2 mm 3 m/s 742 mmHg 95%
    23:00 +11°C° 0.2 mm 3 m/s 742 mmHg 96%

    Depois de amanhã, 28 Agosto, Quarta-feira

    Tempo Temperatura Precipitação Vento Pressão Humidade
    00:00 +11°C° 0.2 mm 3 m/s 741 mmHg 96%
    01:00 +11°C° 0.8 mm 3 m/s 741 mmHg 95%
    02:00 +11°C° 0.8 mm 3 m/s 741 mmHg 95%
    03:00 +11°C° 0.8 mm 4 m/s 741 mmHg 94%
    04:00 +9°C° 0.4 mm 5 m/s 741 mmHg 92%
    05:00 +9°C° 0.4 mm 6 m/s 741 mmHg 91%
    06:00 +8°C° 0.4 mm 7 m/s 741 mmHg 89%
    07:00 +9°C° 0 mm 7 m/s 741 mmHg 88%
    08:00 +9°C° 0 mm 7 m/s 742 mmHg 86%
    09:00 +9°C° 0 mm 7 m/s 742 mmHg 84%
    10:00 +9°C° 0.1 mm 7 m/s 742 mmHg 83%
    11:00 +9°C° 0.1 mm 7 m/s 742 mmHg 83%
    12:00 +10°C° 0.1 mm 7 m/s 743 mmHg 82%
    13:00 +10°C° 0.1 mm 8 m/s 743 mmHg 80%
    14:00 +10°C° 0.1 mm 8 m/s 743 mmHg 79%
    15:00 +11°C° 0.1 mm 9 m/s 743 mmHg 77%
    16:00 +10°C° 0.1 mm 9 m/s 744 mmHg 79%
    17:00 +9°C° 0.1 mm 8 m/s 744 mmHg 81%
    18:00 +7°C° 0.1 mm 8 m/s 744 mmHg 83%
    19:00 +7°C° 0 mm 8 m/s 744 mmHg 83%
    20:00 +7°C° 0 mm 8 m/s 745 mmHg 83%
    21:00 +7°C° 0 mm 8 m/s 745 mmHg 83%
    22:00 +6°C° 0 mm 8 m/s 745 mmHg 84%
    23:00 +6°C° 0 mm 8 m/s 745 mmHg 85%

    29 Agosto, Quinta-feira

    Tempo Temperatura Precipitação Vento Pressão Humidade
    00:00 +6°C° 0 mm 8 m/s 745 mmHg 85%
    01:00 +6°C° 0 mm 8 m/s 745 mmHg 85%
    02:00 +6°C° 0 mm 8 m/s 745 mmHg 84%
    03:00 +6°C° 0 mm 8 m/s 745 mmHg 84%
    04:00 +6°C° 0 mm 8 m/s 746 mmHg 82%
    05:00 +6°C° 0 mm 8 m/s 746 mmHg 80%
    06:00 +6°C° 0 mm 8 m/s 746 mmHg 79%
    07:00 +6°C° 0 mm 8 m/s 747 mmHg 78%
    08:00 +6°C° 0 mm 8 m/s 747 mmHg 77%
    09:00 +7°C° 0 mm 8 m/s 747 mmHg 77%
    10:00 +7°C° 0 mm 8 m/s 748 mmHg 76%
    11:00 +7°C° 0 mm 8 m/s 748 mmHg 75%
    12:00 +9°C° 0 mm 8 m/s 748 mmHg 75%
    13:00 +9°C° 0 mm 8 m/s 748 mmHg 73%
    14:00 +10°C° 0 mm 7 m/s 749 mmHg 72%
    15:00 +10°C° 0 mm 7 m/s 749 mmHg 71%
    16:00 +10°C° 0 mm 6 m/s 749 mmHg 72%
    17:00 +10°C° 0 mm 6 m/s 749 mmHg 73%
    18:00 +10°C° 0 mm 5 m/s 749 mmHg 73%
    19:00 +10°C° 0 mm 5 m/s 749 mmHg 73%
    20:00 +9°C° 0 mm 5 m/s 749 mmHg 73%
    21:00 +10°C° 0 mm 4 m/s 749 mmHg 73%
    22:00 +8°C° 0 mm 4 m/s 749 mmHg 76%
    23:00 +7°C° 0 mm 4 m/s 749 mmHg 79%

    30 Agosto, Sexta-feira

    Tempo Temperatura Precipitação Vento Pressão Humidade
    00:00 +6°C° 0 mm 4 m/s 749 mmHg 82%
    01:00 +7°C° 0 mm 3 m/s 749 mmHg 85%
    02:00 +5°C° 0 mm 3 m/s 749 mmHg 88%
    03:00 +4°C° 0 mm 3 m/s 749 mmHg 91%
    04:00 +4°C° 0 mm 3 m/s 748 mmHg 90%
    05:00 +5°C° 0 mm 3 m/s 748 mmHg 88%
    06:00 +5°C° 0 mm 3 m/s 748 mmHg 87%
    07:00 +6°C° 0 mm 4 m/s 748 mmHg 80%
    08:00 +8°C° 0 mm 4 m/s 749 mmHg 72%
    09:00 +9°C° 0 mm 5 m/s 749 mmHg 65%
    10:00 +9°C° 0.1 mm 5 m/s 749 mmHg 70%
    11:00 +9°C° 0.1 mm 5 m/s 749 mmHg 74%
    12:00 +8°C° 0.1 mm 5 m/s 749 mmHg 78%
    13:00 +9°C° 0.1 mm 5 m/s 749 mmHg 77%
    14:00 +9°C° 0.1 mm 5 m/s 749 mmHg 76%
    15:00 +10°C° 0.1 mm 5 m/s 749 mmHg 75%
    16:00 +9°C° 0.1 mm 5 m/s 749 mmHg 76%
    17:00 +10°C° 0.1 mm 4 m/s 749 mmHg 78%
    18:00 +10°C° 0.1 mm 3 m/s 749 mmHg 79%
    19:00 +9°C° 0 mm 3 m/s 749 mmHg 79%
    20:00 +9°C° 0 mm 3 m/s 750 mmHg 79%
    21:00 +9°C° 0 mm 3 m/s 750 mmHg 79%
    22:00 +8°C° 0 mm 3 m/s 750 mmHg 82%
    23:00 +7°C° 0 mm 3 m/s 750 mmHg 85%

    31 Agosto, Sábado

    Tempo Temperatura Precipitação Vento Pressão Humidade
    00:00 +5°C° 0 mm 3 m/s 750 mmHg 88%
    01:00 +5°C° 0 mm 3 m/s 750 mmHg 87%
    02:00 +5°C° 0 mm 3 m/s 750 mmHg 86%
    03:00 +7°C° 0 mm 3 m/s 749 mmHg 85%
    04:00 +7°C° 0 mm 3 m/s 750 mmHg 84%
    05:00 +6°C° 0 mm 4 m/s 750 mmHg 83%
    06:00 +6°C° 0 mm 4 m/s 750 mmHg 82%
    07:00 +7°C° 0 mm 4 m/s 750 mmHg 78%
    08:00 +8°C° 0 mm 4 m/s 750 mmHg 75%
    09:00 +8°C° 0 mm 5 m/s 750 mmHg 71%
    10:00 +9°C° 0 mm 5 m/s 750 mmHg 67%
    11:00 +9°C° 0 mm 5 m/s 750 mmHg 63%
    12:00 +9°C° 0 mm 5 m/s 750 mmHg 59%
    13:00 +10°C° 0 mm 4 m/s 749 mmHg 60%
    14:00 +10°C° 0 mm 4 m/s 749 mmHg 61%
    15:00 +10°C° 0 mm 4 m/s 749 mmHg 62%
    16:00 +10°C° 0 mm 4 m/s 749 mmHg 65%
    17:00 +10°C° 0 mm 3 m/s 749 mmHg 67%
    18:00 +10°C° 0 mm 3 m/s 749 mmHg 69%
    19:00 +9°C° 0 mm 3 m/s 749 mmHg 70%
    20:00 +9°C° 0 mm 3 m/s 749 mmHg 71%
    21:00 +8°C° 0 mm 4 m/s 749 mmHg 72%
    22:00 +8°C° 0 mm 3 m/s 749 mmHg 77%
    23:00 +7°C° 0 mm 3 m/s 749 mmHg 81%
    Mostrar mais